Location: Homewood
(41.1836°S, 175.9581°E)
Time: 03:14:17
(UTC+00:00)

Cosmos 1833 Rocket - Pass Details

Date: 18 April 2024
Orbit: 833 x 838 km, 71.0° (Epoch: 22 May)

Event Time Altitude Azimuth Distance (km) Brightness Sun altitude
Exits shadow 16:16:14 39° 181° (S) 1,264 3.6 -29.6°
Maximum altitude 16:18:17 63° 116° (ESE) 941 3.0 -29.2°
Drops below altitude 10° 16:23:52 10° 35° (NE) 2,452 5.4 -28.2°
Sets 16:26:19 0° 31° (NNE) 3,378 6.1 -27.8°
